Tracking 25709 objects as of 23-May-2022
HD Live streaming from Space Station
objects crossing your sky now

DIAMANT B-P4 DEB

Track DIAMANT B-P4 DEB now!
10-day predictions


NORAD ID: 7654
Int'l Code: 1975-010C
Perigee: 792.9 km
Apogee: 1,047.6 km
Inclination: 49.8 °
Period: 103.3 minutes
Semi major axis: 7291 km
RCS: 0.0394 m2 (small)
Launch date: February 6, 1975
Source: France (FR)
Launch site: FRENCH GUIANA (FRGUI)

Note: This is SATELLITE DEBRIS
aabbcc
Your satellite tracking list
Your tracking list is empty




NASA's NSSDC Master Catalog

Two Line Element Set (TLE):
1 07654U 75010C   22142.48787102  .00000224  00000-0  24519-3 0  9995
2 07654  49.8460  56.1028 0174614 127.8278 233.8569 13.94436472402404
Source of the keplerian elements: AFSPC